This is the latest recevied weather packets stored in our database for station/object KD8BMB. If no packets are shown the sender has not sent any weather packets the latest 10 day(s).
| Time | Temp. | Humidity | Pressure | Rain* | Wind** | Luminosity | Snow |
|---|---|---|---|---|---|---|---|
| 1778104369 | 11.11° C | 49% | 1012 hPa | 0 mm | - | 150 W/m² | - |
| 1778104065 | 11.67° C | 49% | 1012 hPa | 0 mm | - | 179 W/m² | - |
| 1778103763 | 11.11° C | 49% | 1012 hPa | 0 mm | - | 158 W/m² | - |
| 1778103461 | 11.11° C | 49% | 1011.9 hPa | 0 mm | - | 170 W/m² | - |
| 1778103157 | 11.11° C | 49% | 1011.9 hPa | 0 mm | - | 204 W/m² | - |
| 1778102855 | 11.67° C | 48% | 1011.8 hPa | 0 mm | - | 205 W/m² | - |
| 1778102551 | 11.11° C | 49% | 1012.1 hPa | 0 mm | - | 256 W/m² | - |
| 1778102246 | 11.11° C | 50% | 1011.9 hPa | 0 mm | - | 147 W/m² | - |
| 1778101942 | 11.11° C | 49% | 1012 hPa | 0 mm | - | 88 W/m² | - |
| 1778101639 | 11.67° C | 48% | 1011.7 hPa | 0 mm | - | 157 W/m² | - |
| 1778101337 | 11.67° C | 48% | 1011.9 hPa | 0 mm | - | 262 W/m² | - |
| 1778101034 | 11.11° C | 49% | 1012 hPa | 0 mm | - | 285 W/m² | - |
| 1778100728 | 11.11° C | 49% | 1011.9 hPa | 0 mm | - | 209 W/m² | - |
| 1778100426 | 11.11° C | 48% | 1011.9 hPa | 0 mm | - | 211 W/m² | - |
| 1778100123 | 11.67° C | 48% | 1011.9 hPa | 0 mm | - | 215 W/m² | - |
| 1778099821 | 11.67° C | 47% | 1011.9 hPa | 0 mm | - | 197 W/m² | - |
| 1778099518 | 11.67° C | 47% | 1012.1 hPa | 0 mm | - | 319 W/m² | - |
| 1778099216 | 11.11° C | 47% | 1012.1 hPa | 0 mm | - | 309 W/m² | - |
| 1778098912 | 11.67° C | 49% | 1012 hPa | 0 mm | - | 258 W/m² | - |
| 1778098609 | 11.11° C | 48% | 1012.1 hPa | 0 mm | - | 288 W/m² | - |
| 1778098305 | 11.11° C | 48% | 1012.2 hPa | 0 mm | - | 135 W/m² | - |
| 1778098002 | 11.11° C | 48% | 1012.1 hPa | 0 mm | - | 171 W/m² | - |
| 1778097699 | 11.11° C | 49% | 1012.3 hPa | 0 mm | - | 157 W/m² | - |
| 1778097395 | 11.11° C | 49% | 1012.4 hPa | 0 mm | - | 162 W/m² | - |
| 1778097092 | 11.11° C | 48% | 1012 hPa | 0 mm | - | 216 W/m² | - |
* Rain latest hour (hover to see other rain measurements)
** Current wind speed in m/s (hover to see current wind gust speed)